Weather History for Tehachapi, CA

Change the Weather History Date:

Friday, January 27, 2012

  Actual Average Record
Temperature  
Mean Temperature 49 °F -  
Max Temperature 59 °F 53 °F 59 °F (2012)
Min Temperature 39 °F 30 °F 28 °F (2014)
Degree Days  
Heating Degree Days 16    
Moisture  
Dew Point 29 °F    
Average Humidity 56    
Maximum Humidity 100    
Minimum Humidity 21    
Precipitation  
Precipitation 0.00 in - - ()
Sea Level Pressure  
Sea Level Pressure 30.22 in    
Wind  
Wind Speed 10 mph (East)    
Max Wind Speed 18 mph    
Max Gust Speed 30 mph    
Visibility 7 miles    
Events Fog    
Averages and records for this station are not official NWS values.
T = Trace of Precipitation, MM = Missing Value Source: NWS Daily Summary

Daily Weather History Graph

Daily Weather History Graph

Search for Another Location

Airport:

Trip Planner

Search our weather history database for the weather conditions in past years. The results will help you decide how hot, cold, wet, or windy it might be!

Date:

Astronomy

Jan. 27, 2012 Rise Set
Actual Time 6:56 AM PST 5:16 PM PST
Civil Twilight 6:29 AM PST 5:43 PM PST
Nautical Twilight 5:58 AM PST 6:14 PM PST
Astronomical Twilight 5:28 AM PST 6:44 PM PST
Moon 9:06 AM PST 9:58 PM PST
Length of Visible Light 11h 14m
Length of Day
10h 20m
Waxing Crescent, 20% of the Moon is Illuminated
Jan 27
Waxing Crescent
Jan 30
First Quarter
Feb 7
Full
Feb 14
Last Quarter
Feb 21
New

Hourly Weather History & Observations

Time (PST) Temp. Windchill Dew Point Humidity Pressure Visibility Wind Dir Wind Speed Gust Speed Precip Events Conditions
12:15 AM 46.4 °F 40.4 °F 42.8 °F 87% 30.21 in 5.0 mi WNW 13.8 mph 18.4 mph N/A   Clear
12:35 AM 44.6 °F 38.8 °F 42.8 °F 93% 30.20 in 3.0 mi NW 11.5 mph - N/A   Clear
1:15 AM 44.6 °F 38.8 °F 44.6 °F 100% 30.19 in 1.8 mi WNW 11.5 mph - N/A   Clear
1:35 AM 44.6 °F 40.2 °F 44.6 °F 100% 30.20 in 3.0 mi WNW 8.1 mph - N/A   Clear
1:55 AM 44.6 °F 42.2 °F 44.6 °F 100% 30.20 in 2.5 mi NW 4.6 mph - N/A   Clear
2:15 AM 44.6 °F 40.7 °F 44.6 °F 100% 30.20 in 2.0 mi NW 6.9 mph - N/A   Clear
2:35 AM 44.6 °F 40.2 °F 44.6 °F 100% 30.19 in 3.0 mi WNW 8.1 mph - N/A   Clear
2:55 AM 44.6 °F 40.2 °F 42.8 °F 93% 30.19 in 5.0 mi NW 8.1 mph - N/A   Clear
3:15 AM 44.6 °F 40.2 °F 42.8 °F 93% 30.20 in 4.0 mi WNW 8.1 mph - N/A   Clear
3:35 AM 44.6 °F 42.2 °F 42.8 °F 93% 30.20 in 2.0 mi NW 4.6 mph - N/A   Clear
4:15 AM 44.6 °F 41.4 °F 44.6 °F 100% 30.19 in 1.5 mi NNW 5.8 mph - N/A   Clear
4:35 AM 44.6 °F 43.1 °F 44.6 °F 100% 30.19 in 2.5 mi NNW 3.5 mph - N/A   Clear
5:15 AM 44.6 °F 43.1 °F 44.6 °F 100% 30.20 in 3.0 mi WNW 3.5 mph - N/A   Clear
5:35 AM 44.6 °F - 42.8 °F 93% 30.19 in 5.0 mi Calm Calm - N/A   Clear
5:55 AM 44.6 °F - 42.8 °F 93% 30.20 in 3.0 mi Calm Calm - N/A   Clear
6:15 AM 41.0 °F - 41.0 °F 100% 30.21 in 1.5 mi Calm Calm - N/A   Clear
6:35 AM 41.0 °F - 41.0 °F 100% 30.21 in 1.0 mi Calm Calm - N/A   Clear
6:55 AM 41.0 °F 39.0 °F 41.0 °F 100% 30.21 in 0.2 mi West 3.5 mph - N/A Fog Fog
7:15 AM 39.2 °F - 39.2 °F 100% 30.21 in 0.2 mi Calm Calm - N/A Fog Fog
7:35 AM 39.2 °F 35.9 °F 39.2 °F 100% 30.22 in 0.2 mi SE 4.6 mph - N/A Fog Fog
7:55 AM 41.0 °F 37.1 °F 41.0 °F 100% 30.21 in 1.0 mi SE 5.8 mph - N/A   Clear
8:15 AM 42.8 °F 40.1 °F 42.8 °F 100% 30.22 in 2.5 mi East 4.6 mph - N/A   Clear
8:35 AM 44.6 °F 39.2 °F 44.6 °F 100% 30.22 in 4.0 mi SE 10.4 mph - N/A   Clear
8:55 AM 50.0 °F - 32.0 °F 50% 30.22 in 8.0 mi ESE 15.0 mph 21.9 mph N/A   Clear
9:15 AM 50.0 °F - 32.0 °F 50% 30.23 in 9.0 mi North - - N/A   Clear
9:35 AM 51.8 °F - 32.0 °F 47% 30.23 in 10.0 mi East 15.0 mph 27.6 mph N/A   Clear
10:15 AM 53.6 °F - 30.2 °F 41% 30.25 in 9.0 mi ESE 13.8 mph 21.9 mph N/A   Clear
10:35 AM 55.4 °F - 28.4 °F 36% 30.25 in 9.0 mi East 11.5 mph 20.7 mph N/A   Clear
10:55 AM 55.4 °F - 28.4 °F 36% 30.25 in 10.0 mi East 13.8 mph 20.7 mph N/A   Clear
11:15 AM 55.4 °F - 26.6 °F 33% 30.24 in 8.0 mi East 16.1 mph 24.2 mph N/A   Clear
11:35 AM 57.2 °F - 26.6 °F 31% 30.23 in 10.0 mi East 12.7 mph 20.7 mph N/A   Clear
11:55 AM 57.2 °F - 26.6 °F 31% 30.21 in 9.0 mi East 18.4 mph 29.9 mph N/A   Clear
12:15 PM 57.2 °F - 23.0 °F 27% 30.20 in 9.0 mi East 12.7 mph 25.3 mph N/A   Clear
12:35 PM 57.2 °F - 24.8 °F 29% 30.20 in 10.0 mi East 16.1 mph 25.3 mph N/A   Clear
12:55 PM 59.0 °F - 23.0 °F 25% 30.19 in 9.0 mi East 15.0 mph 21.9 mph N/A   Clear
1:15 PM 59.0 °F - 24.8 °F 27% 30.19 in 7.0 mi East 9.2 mph 18.4 mph N/A   Clear
1:35 PM 57.2 °F - 24.8 °F 29% 30.18 in 9.0 mi East 12.7 mph 23.0 mph N/A   Clear
1:55 PM 57.2 °F - 26.6 °F 31% 30.18 in 9.0 mi ESE 16.1 mph 20.7 mph N/A   Clear
2:15 PM 57.2 °F - 23.0 °F 27% 30.17 in 9.0 mi ESE 13.8 mph 23.0 mph N/A   Clear
2:35 PM 57.2 °F - 21.2 °F 25% 30.18 in 9.0 mi ESE 16.1 mph 24.2 mph N/A   Clear
2:55 PM 57.2 °F - 19.4 °F 23% 30.19 in 10.0 mi East 12.7 mph 18.4 mph N/A   Clear
3:15 PM 57.2 °F - 17.6 °F 21% 30.19 in 9.0 mi East 13.8 mph 20.7 mph N/A   Clear
3:35 PM 57.2 °F - 17.6 °F 21% 30.19 in 9.0 mi ESE 13.8 mph 18.4 mph N/A   Clear
3:55 PM 55.4 °F - 17.6 °F 23% 30.20 in 9.0 mi ESE 11.5 mph 20.7 mph N/A   Clear
4:15 PM 55.4 °F - 17.6 °F 23% 30.21 in 9.0 mi East 8.1 mph 17.3 mph N/A   Clear
4:35 PM 53.6 °F - 15.8 °F 22% 30.22 in 9.0 mi East 9.2 mph - N/A   Clear
4:55 PM 53.6 °F - 15.8 °F 22% 30.21 in 9.0 mi ESE 11.5 mph 19.6 mph N/A   Clear
5:15 PM 50.0 °F - 17.6 °F 28% 30.23 in 10.0 mi SE 6.9 mph - N/A   Clear
5:35 PM 46.4 °F 42.9 °F 19.4 °F 34% 30.23 in 10.0 mi ESE 6.9 mph - N/A   Clear
5:55 PM 48.2 °F - 17.6 °F 30% 30.23 in 10.0 mi SE 6.9 mph - N/A   Clear
6:15 PM 46.4 °F 42.4 °F 17.6 °F 32% 30.24 in 10.0 mi ESE 8.1 mph - N/A   Clear
6:35 PM 48.2 °F - 17.6 °F 30% 30.24 in 10.0 mi ESE 11.5 mph - N/A   Clear
6:55 PM 46.4 °F 41.9 °F 17.6 °F 32% 30.25 in 10.0 mi ESE 9.2 mph - N/A   Clear
7:15 PM 46.4 °F 41.1 °F 15.8 °F 29% 30.26 in 10.0 mi East 11.5 mph 18.4 mph N/A   Clear
7:35 PM 46.4 °F 40.4 °F 17.6 °F 32% 30.26 in 10.0 mi SE 13.8 mph - N/A   Clear
8:15 PM 44.6 °F 38.1 °F 17.6 °F 34% 30.25 in 10.0 mi ESE 13.8 mph - N/A   Clear
8:35 PM 46.4 °F 40.4 °F 15.8 °F 29% 30.26 in 10.0 mi East 13.8 mph 25.3 mph N/A   Clear
8:55 PM 44.6 °F 38.1 °F 17.6 °F 34% 30.26 in 10.0 mi ESE 13.8 mph - N/A   Clear
9:15 PM 44.6 °F 37.4 °F 17.6 °F 34% 30.27 in 10.0 mi ESE 16.1 mph - N/A   Clear
9:35 PM 44.6 °F 38.8 °F 17.6 °F 34% 30.28 in 10.0 mi ESE 11.5 mph - N/A   Clear
9:55 PM 42.8 °F 37.5 °F 17.6 °F 36% 30.29 in 10.0 mi SE 9.2 mph 17.3 mph N/A   Clear
10:15 PM 44.6 °F 39.2 °F 17.6 °F 34% 30.30 in 10.0 mi ESE 10.4 mph - N/A   Clear
10:35 PM 42.8 °F 37.5 °F 15.8 °F 34% 30.31 in 10.0 mi SE 9.2 mph - N/A   Clear
10:55 PM 42.8 °F 37.5 °F 15.8 °F 34% 30.31 in 10.0 mi ESE 9.2 mph - N/A   Clear
11:15 PM 46.4 °F 40.7 °F 14.0 °F 27% 30.30 in 10.0 mi ESE 12.7 mph - N/A   Clear
11:35 PM 44.6 °F 39.7 °F 14.0 °F 29% 30.30 in 10.0 mi ENE 9.2 mph - N/A   Clear